Regional Weather Roundup
Issued by NWS Kansas City/Pleasant Hill, MO

Home | Current Version | Previous Version | Text Only | Print | Product List | Glossary On
Versions: 1 2 3 4 5 6 7 8 9 10 11 12 13 14 15 16 17 18 19 20 21 22 23 24 25 26 27
000
ASUS43 KEAX 021210
RWREAX

WEATHER ROUNDUP FOR EASTERN KANSAS AND NORTHWEST MISSOURI
NATIONAL WEATHER SERVICE KANSAS CITY/PLEASANT HILL MO
700 AM CDT MON MAY 02 2016

KSZ040-057-103>105-MOZ028-029-037-043-021300-
...KANSAS CITY METROPOLITAN AREA...

CITY           SKY/WX    TMP DP  RH WIND       PRES   REMARKS
K.C. INTL      CLOUDY    48  44  86 N8        30.10S
6HR MIN TEMP:  47; 6HR MAX TEMP:  48;

K.C. DOWNTOWN  CLOUDY    50  44  80 N8        30.09F
6HR MIN TEMP:  50; 6HR MAX TEMP:  51;

LEES SUMMIT    CLOUDY    48  44  86 N9        30.09S
6HR MIN TEMP:  48; 6HR MAX TEMP:  50;

OLATHE - IXD   CLOUDY    47  45  93 NW6       30.11R
6HR MIN TEMP:  47; 6HR MAX TEMP:  49; 6HR PCP: TRACE;

OLATHE - OJC   CLOUDY    47  44  90 NW7       30.10R
6HR MIN TEMP:  47; 6HR MAX TEMP:  49;

LAWRENCE       CLOUDY    48  44  86 N8        30.11S

$$

MOZ001>008-011>017-020>025-030>033-038>040-044>046-053-054-021300-
...NORTHERN AND CENTRAL MISSOURI...

CITY           SKY/WX    TMP DP  RH WIND       PRES   REMARKS
ST. JOSEPH     CLOUDY    48  45  89 N3        30.11S
6HR MIN TEMP:  48; 6HR MAX TEMP:  49;

MOSBY          CLOUDY    48  45  87 NW6       30.10R
WARRENSBURG    CLOUDY    46  45  93 NW3       30.08S
WHITEMAN AFB   NOT AVBL
CLINTON        CLOUDY    48  46  93 CALM      30.09R
SEDALIA        CLOUDY    50  46  86 N5        30.08S
6HR MIN TEMP:  49; 6HR MAX TEMP:  51; 6HR PCP: TRACE;

WARSAW         NOT AVBL
CHILLICOTHE      N/A     47  45  93 N3        30.10S
6HR MIN TEMP:  46; 6HR MAX TEMP:  50;

KIRKSVILLE     CLOUDY    48  46  93 N7        30.08S FOG
6HR MIN TEMP:  48; 6HR MAX TEMP:  48;


$$

MOZ041-047>049-056>058-063>065-088>090-097-021300-
...EASTERN AND SOUTHERN MISSOURI...

CITY           SKY/WX    TMP DP  RH WIND       PRES   REMARKS
ST. LOUIS INTL MOCLDY    52  48  86 NW3       30.02F
6HR MIN TEMP:  52; 6HR MAX TEMP:  55; 6HR PCP: TRACE;

SPIRIT OF STL  CLOUDY    51  48  89 W3        30.04R
COLUMBIA       MOCLDY    50  46  86 N7        30.06R
JEFFERSON CITY CLOUDY    50  45  83 W3        30.07R
ROLLA          CLOUDY    48  45  89 CALM      30.05R
OSAGE BEACH    CLOUDY    48  39  71 W3        30.09R
SPRINGFIELD    CLOUDY    51  46  83 N7        30.07R
BRANSON        MOCLDY    50  48  93 N7        30.07R
JOPLIN         CLOUDY    50  46  86 N8        30.10R
WEST PLAINS    CLOUDY    49  43  80 N6        30.06R

$$

IAZ060-094-KSZ022-034>040-054-083-096-NEZ052-066-093-021300-
...KANSAS...SOUTHEAST NEBRASKA AND IOWA...

CITY           SKY/WX    TMP DP  RH WIND       PRES   REMARKS
TOPEKA         CLOUDY    48  44  86 NW7       30.11F
6HR MIN TEMP:  48; 6HR MAX TEMP:  49;

MANHATTAN      CLOUDY    49  43  80 NW3       30.14S
EMPORIA        CLOUDY    47  43  86 NW7       30.13R
CHANUTE        CLOUDY    49  43  80 NW6       30.11S
WICHITA        CLOUDY    48  43  82 N13       30.15S
OMAHA          MOCLDY    45  42  89 N5        30.14R
LINCOLN        CLOUDY    48  41  76 N6        30.16R
FALLS CITY     CLOUDY    47  45  93 NW7       30.11S
LAMONI         CLOUDY    46  45  96 N3        30.10R
DES MOINES     PTCLDY    44  41  89 N5        30.11S

$$





USA.gov is the U.S. government's official web portal to all federal, state and local government web resources and services.